View from above orbital plane
|
View from above satellite
|
Ground track
|
The orbit data is extracted from the following two-line orbital elements,
1 14781U 84021B 21021.46565464 .00000111 00000-0 19695-4 0 9999
2 14781 97.5900 28.5743 0007946 195.1705 164.9273 14.83239003964145
Epoch (UTC): | 21 January 2021 11:10:32 |
Eccentricity: | 0.0007946 |
inclination: | 97.5900° |
perigee height: | 613 km |
apogee height: | 624 km |
right ascension of ascending node: | 28.5743° |
argument of perigee: | 195.1705° |
revolutions per day: | 14.83239003 |
mean anomaly at epoch: | 164.9273° |
orbit number at epoch: | 96414 |
The dashed part of the orbit path shows where the satellite is in the earth's shadow,
|
|